Time,TemperatureF,DewpointF,PressureIn,WindDirection,WindDirectionDegrees,WindSpeedMPH,WindSpeedGustMPH,Humidity,HourlyPrecipIn,Conditions,Clouds,dailyrainin,SoftwareType,DateUTC
2013-02-02 11:36:00,15.6,5.9,29.73,NNE,19,0.0,44.0,65,0.00,,,0.00,Wunderground v.1.13,2013-02-02 20:36:00,
2013-02-02 11:45:00,14.8,5.5,29.73,NNE,19,0.0,44.0,66,0.00,,,0.00,Wunderground v.1.13,2013-02-02 20:45:00,
2013-02-02 11:50:00,14.6,5.0,29.73,NNE,19,0.0,44.0,65,0.00,,,0.00,Wunderground v.1.13,2013-02-02 20:50:00,
2013-02-02 11:55:00,14.6,4.6,29.73,NNE,19,0.0,44.0,64,0.00,,,0.00,Wunderground v.1.13,2013-02-02 20:55:00,
2013-02-02 12:00:00,14.8,4.8,29.73,NNE,19,0.0,44.0,64,0.00,,,0.00,Wunderground v.1.13,2013-02-02 21:00:00,
2013-02-02 12:10:00,14.8,4.8,29.73,NNE,19,0.0,44.0,64,0.00,,,0.00,Wunderground v.1.13,2013-02-02 21:10:00,
2013-02-02 12:15:00,14.8,4.8,29.73,NNE,19,0.0,44.0,64,0.00,,,0.00,Wunderground v.1.13,2013-02-02 21:15:00,
2013-02-02 12:20:00,14.8,4.5,29.73,SSE,168,0.0,44.0,63,0.00,,,0.00,Wunderground v.1.13,2013-02-02 21:20:00,
2013-02-02 12:25:00,14.9,4.6,29.73,SSE,168,0.0,44.0,63,0.00,,,0.00,Wunderground v.1.13,2013-02-02 21:25:00,
2013-02-02 12:35:00,15.2,4.5,29.72,SSE,168,0.0,44.0,62,0.00,,,0.00,Wunderground v.1.13,2013-02-02 21:35:00,
2013-02-02 12:40:00,15.2,4.5,29.72,SSE,168,0.0,44.0,62,0.00,,,0.00,Wunderground v.1.13,2013-02-02 21:40:00,
2013-02-02 12:45:00,15.2,4.5,29.72,SSE,168,0.0,44.0,62,0.00,,,0.00,Wunderground v.1.13,2013-02-02 21:45:00,
2013-02-02 12:50:00,15.2,4.5,29.72,SSE,168,0.0,44.0,62,0.00,,,0.00,Wunderground v.1.13,2013-02-02 21:50:00,
2013-02-02 12:55:00,15.2,4.9,29.72,South,186,0.0,44.0,63,0.00,,,0.00,Wunderground v.1.13,2013-02-02 21:55:00,
2013-02-02 13:10:00,14.9,5.2,29.72,South,186,0.0,44.0,65,0.00,,,0.00,Wunderground v.1.13,2013-02-02 22:10:00,
2013-02-02 13:15:00,14.4,5.1,29.72,West,266,0.0,44.0,66,0.00,,,0.00,Wunderground v.1.13,2013-02-02 22:15:00,
2013-02-02 13:25:00,14.1,5.8,29.72,WNW,292,1.0,1.0,69,0.00,,,0.00,Wunderground v.1.13,2013-02-02 22:25:00,
2013-02-02 13:30:00,14.1,5.8,29.72,WNW,292,1.0,1.0,69,0.00,,,0.00,Wunderground v.1.13,2013-02-02 22:30:00,
2013-02-02 13:35:00,14.1,6.1,29.72,WNW,292,0.0,44.0,70,0.00,,,0.00,Wunderground v.1.13,2013-02-02 22:35:00,
2013-02-02 13:40:00,14.3,6.3,29.72,NNW,333,0.0,44.0,70,0.00,,,0.00,Wunderground v.1.13,2013-02-02 22:40:00,
2013-02-02 13:50:00,15.1,6.1,29.70,NW,324,0.0,44.0,67,0.00,,,0.00,Wunderground v.1.13,2013-02-02 22:50:00,
2013-02-02 13:55:00,15.6,6.6,29.70,NW,324,0.0,44.0,67,0.00,,,0.00,Wunderground v.1.13,2013-02-02 22:55:00,
2013-02-02 14:10:00,16.1,7.4,29.70,NNW,331,0.0,44.0,68,0.00,,,0.00,Wunderground v.1.13,2013-02-02 23:10:00,
2013-02-02 14:15:00,15.9,7.2,29.70,NNW,331,0.0,44.0,68,0.00,,,0.00,Wunderground v.1.13,2013-02-02 23:15:00,
2013-02-02 14:20:00,16.1,7.1,29.70,NNW,331,0.0,44.0,67,0.00,,,0.00,Wunderground v.1.13,2013-02-02 23:20:00,
2013-02-02 14:25:00,16.5,6.8,29.70,NNW,331,0.0,44.0,65,0.00,,,0.00,Wunderground v.1.13,2013-02-02 23:25:00,
2013-02-02 14:35:00,17.5,7.4,29.69,NNW,331,0.0,44.0,64,0.00,,,0.00,Wunderground v.1.13,2013-02-02 23:35:00,
2013-02-02 14:40:00,17.8,7.0,29.69,NNW,331,0.0,44.0,62,0.00,,,0.00,Wunderground v.1.13,2013-02-02 23:40:00,
2013-02-02 14:45:00,18.1,7.6,29.69,NNW,331,0.0,44.0,63,0.00,,,0.00,Wunderground v.1.13,2013-02-02 23:45:00,
2013-02-02 14:50:00,18.3,7.8,29.68,NNW,331,0.0,44.0,63,0.00,,,0.00,Wunderground v.1.13,2013-02-02 23:50:00,
2013-02-02 15:00:00,18.0,8.5,29.68,WNW,293,0.0,44.0,66,0.00,,,0.00,Wunderground v.1.13,2013-02-03 00:00:00,
2013-02-02 15:10:00,16.4,7.7,29.68,WNW,293,0.0,44.0,68,0.00,,,0.00,Wunderground v.1.13,2013-02-03 00:10:00,
2013-02-02 15:20:00,16.5,7.1,29.67,WNW,293,0.0,44.0,66,0.00,,,0.00,Wunderground v.1.13,2013-02-03 00:20:00,
2013-02-02 15:25:00,16.5,7.1,29.67,WNW,293,0.0,44.0,66,0.00,,,0.00,Wunderground v.1.13,2013-02-03 00:25:00,
2013-02-02 15:30:00,16.2,7.8,29.67,WNW,293,0.0,44.0,69,0.00,,,0.00,Wunderground v.1.13,2013-02-03 00:30:00,
2013-02-02 15:35:00,15.7,7.3,29.67,WNW,293,0.0,44.0,69,0.00,,,0.00,Wunderground v.1.13,2013-02-03 00:35:00,
2013-02-02 15:45:00,15.4,7.4,29.67,WNW,293,0.0,44.0,70,0.00,,,0.00,Wunderground v.1.13,2013-02-03 00:45:00,
2013-02-02 15:50:00,15.4,8.0,29.67,WNW,293,0.0,44.0,72,0.00,,,0.00,Wunderground v.1.13,2013-02-03 00:50:00,
2013-02-02 16:00:00,16.1,8.3,29.67,NW,324,0.0,44.0,71,0.00,,,0.00,Wunderground v.1.13,2013-02-03 01:00:00,
2013-02-02 16:10:00,16.9,8.5,29.66,NNW,333,0.0,44.0,69,0.00,,,0.00,Wunderground v.1.13,2013-02-03 01:10:00,
2013-02-02 16:15:00,17.0,8.3,29.66,NNW,333,0.0,44.0,68,0.00,,,0.00,Wunderground v.1.13,2013-02-03 01:15:00,
2013-02-02 16:25:00,17.0,7.9,29.67,NNW,333,0.0,44.0,67,0.00,,,0.00,Wunderground v.1.13,2013-02-03 01:25:00,
2013-02-02 16:30:00,17.0,7.9,29.67,NNW,333,0.0,44.0,67,0.00,,,0.00,Wunderground v.1.13,2013-02-03 01:30:00,
2013-02-02 16:35:00,17.0,7.9,29.66,NNW,333,0.0,44.0,67,0.00,,,0.00,Wunderground v.1.13,2013-02-03 01:35:00,
2013-02-02 16:45:00,17.8,8.0,29.66,NNW,333,0.0,44.0,65,0.00,,,0.00,Wunderground v.1.13,2013-02-03 01:45:00,
2013-02-02 16:50:00,17.5,8.1,29.65,NNW,333,0.0,44.0,66,0.00,,,0.00,Wunderground v.1.13,2013-02-03 01:50:00,
2013-02-02 16:55:00,17.0,7.9,29.65,NNW,333,0.0,44.0,67,0.00,,,0.00,Wunderground v.1.13,2013-02-03 01:55:00,
2013-02-02 17:10:00,16.5,8.1,29.65,NNW,333,0.0,44.0,69,0.00,,,0.00,Wunderground v.1.13,2013-02-03 02:10:00,
2013-02-02 17:15:00,16.5,8.1,29.65,NNW,333,0.0,44.0,69,0.00,,,0.00,Wunderground v.1.13,2013-02-03 02:15:00,
2013-02-02 17:25:00,16.5,8.1,29.66,NNW,333,0.0,44.0,69,0.00,,,0.00,Wunderground v.1.13,2013-02-03 02:25:00,
2013-02-02 17:30:00,16.2,7.8,29.66,NNW,333,0.0,44.0,69,0.00,,,0.00,Wunderground v.1.13,2013-02-03 02:30:00,
2013-02-02 17:35:00,16.1,7.7,29.65,NNW,333,0.0,44.0,69,0.00,,,0.00,Wunderground v.1.13,2013-02-03 02:35:00,
2013-02-02 17:40:00,16.1,7.7,29.65,NNW,333,0.0,44.0,69,0.00,,,0.00,Wunderground v.1.13,2013-02-03 02:40:00,
2013-02-02 17:50:00,15.7,7.3,29.65,NNW,333,0.0,44.0,69,0.00,,,0.00,Wunderground v.1.13,2013-02-03 02:50:00,
2013-02-02 18:00:00,15.4,7.4,29.65,NNW,333,0.0,44.0,70,0.00,,,0.00,Wunderground v.1.13,2013-02-03 03:00:00,
2013-02-02 18:10:00,15.1,7.4,29.66,NNW,333,0.0,44.0,71,0.00,,,0.00,Wunderground v.1.13,2013-02-03 03:10:00,
2013-02-02 18:15:00,14.8,7.4,29.66,NNW,333,0.0,44.0,72,0.00,,,0.00,Wunderground v.1.13,2013-02-03 03:15:00,
2013-02-02 18:25:00,14.6,7.5,29.65,NNW,333,0.0,44.0,73,0.00,,,0.00,Wunderground v.1.13,2013-02-03 03:25:00,
2013-02-02 18:30:00,14.6,8.1,29.65,NNW,345,0.0,44.0,75,0.00,,,0.00,Wunderground v.1.13,2013-02-03 03:30:00,
2013-02-02 18:35:00,14.4,8.2,29.64,NNW,347,1.0,44.0,76,0.00,,,0.00,Wunderground v.1.13,2013-02-03 03:35:00,
2013-02-02 18:40:00,14.1,7.9,29.64,NNW,346,0.0,44.0,76,0.00,,,0.00,Wunderground v.1.13,2013-02-03 03:40:00,
2013-02-02 18:50:00,13.6,7.7,29.64,NNW,346,0.0,44.0,77,0.00,,,0.00,Wunderground v.1.13,2013-02-03 03:50:00,
2013-02-02 18:55:00,13.3,7.4,29.64,NNW,346,0.0,44.0,77,0.00,,,0.00,Wunderground v.1.13,2013-02-03 03:55:00,
2013-02-02 19:00:00,13.1,7.5,29.64,NNW,346,0.0,44.0,78,0.00,,,0.00,Wunderground v.1.13,2013-02-03 04:00:00,
2013-02-02 19:10:00,12.6,7.0,29.64,NNW,336,0.0,44.0,78,0.00,,,0.00,Wunderground v.1.13,2013-02-03 04:10:00,
2013-02-02 19:15:00,12.4,6.6,29.64,NNW,333,0.0,44.0,77,0.00,,,0.00,Wunderground v.1.13,2013-02-03 04:15:00,
2013-02-02 19:20:00,11.6,5.8,29.64,WNW,300,1.0,44.0,77,0.00,,,0.00,Wunderground v.1.13,2013-02-03 04:20:00,
2013-02-02 19:25:00,10.7,5.2,29.64,WNW,300,1.0,44.0,78,0.00,,,0.00,Wunderground v.1.13,2013-02-03 04:25:00,
2013-02-02 19:35:00,10.2,5.0,29.63,NNW,347,1.0,44.0,79,0.00,,,0.00,Wunderground v.1.13,2013-02-03 04:35:00,
2013-02-02 19:40:00,10.7,5.2,29.63,NW,312,1.0,44.0,78,0.00,,,0.00,Wunderground v.1.13,2013-02-03 04:40:00,
2013-02-02 19:45:00,10.5,4.7,29.63,WNW,295,1.0,44.0,77,0.00,,,0.00,Wunderground v.1.13,2013-02-03 04:45:00,
2013-02-02 19:55:00,10.0,4.5,29.63,West,279,0.0,44.0,78,0.00,,,0.00,Wunderground v.1.13,2013-02-03 04:55:00,
2013-02-02 20:00:00,10.0,4.5,29.63,West,279,0.0,44.0,78,0.00,,,0.00,Wunderground v.1.13,2013-02-03 05:00:00,
2013-02-02 20:10:00,10.0,4.8,29.63,West,279,1.0,1.0,79,0.00,,,0.00,Wunderground v.1.13,2013-02-03 05:10:00,
2013-02-02 20:15:00,10.4,4.9,29.63,NW,309,1.0,44.0,78,0.00,,,0.00,Wunderground v.1.13,2013-02-03 05:15:00,
2013-02-02 20:25:00,11.2,5.4,29.62,NW,313,1.0,44.0,77,0.00,,,0.00,Wunderground v.1.13,2013-02-03 05:25:00,
2013-02-02 20:30:00,11.4,5.3,29.62,NW,325,1.0,44.0,76,0.00,,,0.00,Wunderground v.1.13,2013-02-03 05:30:00,
2013-02-02 20:35:00,11.2,5.1,29.61,NW,319,1.0,1.0,76,0.00,,,0.00,Wunderground v.1.13,2013-02-03 05:35:00,
2013-02-02 20:40:00,10.9,5.1,29.61,NW,319,0.0,44.0,77,0.00,,,0.00,Wunderground v.1.13,2013-02-03 05:40:00,
2013-02-02 20:50:00,10.5,4.7,29.61,NW,319,0.0,44.0,77,0.00,,,0.00,Wunderground v.1.13,2013-02-03 05:50:00,
2013-02-02 20:55:00,10.4,4.6,29.61,NW,319,0.0,44.0,77,0.00,,,0.00,Wunderground v.1.13,2013-02-03 05:55:00,
2013-02-02 21:00:00,10.7,4.9,29.61,North,5,0.0,44.0,77,0.00,,,0.00,Wunderground v.1.13,2013-02-03 06:00:00,
2013-02-02 21:10:00,11.2,4.8,29.60,NNW,327,0.0,44.0,75,0.00,,,0.00,Wunderground v.1.13,2013-02-03 06:10:00,
2013-02-02 21:15:00,10.9,4.5,29.60,NNW,327,0.0,44.0,75,0.00,,,0.00,Wunderground v.1.13,2013-02-03 06:15:00,
2013-02-02 21:20:00,10.2,4.1,29.59,NNW,327,0.0,44.0,76,0.00,,,0.00,Wunderground v.1.13,2013-02-03 06:20:00,
2013-02-02 21:30:00,9.0,3.3,29.59,NW,312,1.0,1.0,77,0.00,,,0.00,Wunderground v.1.13,2013-02-03 06:30:00,
2013-02-02 21:35:00,8.4,2.7,29.59,NNW,328,0.0,44.0,77,0.00,,,0.00,Wunderground v.1.13,2013-02-03 06:35:00,
2013-02-02 21:40:00,7.9,2.2,29.59,NNW,328,1.0,44.0,77,0.00,,,0.00,Wunderground v.1.13,2013-02-03 06:40:00,
2013-02-02 21:50:00,6.9,1.5,29.59,NNW,328,1.0,1.0,78,0.00,,,0.00,Wunderground v.1.13,2013-02-03 06:50:00,
2013-02-02 21:55:00,7.0,1.9,29.59,NNW,328,0.0,44.0,79,0.00,,,0.00,Wunderground v.1.13,2013-02-03 06:55:00,
2013-02-02 22:00:00,7.7,2.8,29.59,NNW,328,0.0,44.0,80,0.00,,,0.00,Wunderground v.1.13,2013-02-03 07:00:00,
2013-02-02 22:10:00,9.3,3.8,29.59,NNW,328,0.0,44.0,78,0.00,,,0.00,Wunderground v.1.13,2013-02-03 07:10:00,
2013-02-02 22:15:00,10.0,4.2,29.59,NNW,330,1.0,1.0,77,0.00,,,0.00,Wunderground v.1.13,2013-02-03 07:15:00,
2013-02-02 22:20:00,10.7,4.6,29.58,NW,324,0.0,44.0,76,0.00,,,0.00,Wunderground v.1.13,2013-02-03 07:20:00,
2013-02-02 22:25:00,11.2,4.8,29.58,North,349,1.0,1.0,75,0.00,,,0.00,Wunderground v.1.13,2013-02-03 07:25:00,
2013-02-02 22:35:00,11.7,5.0,29.58,North,349,0.0,44.0,74,0.00,,,0.00,Wunderground v.1.13,2013-02-03 07:35:00,
2013-02-02 22:40:00,11.7,4.7,29.58,North,349,0.0,44.0,73,0.00,,,0.00,Wunderground v.1.13,2013-02-03 07:40:00,
2013-02-02 22:45:00,11.6,4.9,29.58,North,355,0.0,44.0,74,0.00,,,0.00,Wunderground v.1.13,2013-02-03 07:45:00,
2013-02-02 22:50:00,11.9,4.9,29.58,North,355,0.0,44.0,73,0.00,,,0.00,Wunderground v.1.13,2013-02-03 07:50:00,